This is the latest recevied weather packets stored in our database for station/object FW0690. If no packets are shown the sender has not sent any weather packets the latest 10 day(s).
| Time | Temp. | Humidity | Pressure | Rain* | Wind** | Luminosity | Snow |
|---|---|---|---|---|---|---|---|
| 1777635873 | 13.33° C | 28% | 1023.3 hPa | - | - | 32 W/m² | - |
| 1777635513 | 13.89° C | 27% | 1023.3 hPa | - | - | 39 W/m² | - |
| 1777635153 | 13.89° C | 27% | 1023.3 hPa | - | - | 36 W/m² | - |
| 1777634793 | 13.89° C | 27% | 1023.4 hPa | - | - | 33 W/m² | - |
| 1777634433 | 15° C | 27% | 1023.4 hPa | - | - | 43 W/m² | - |
| 1777634073 | 15° C | 28% | 1023.3 hPa | - | - | 55 W/m² | - |
| 1777633713 | 15° C | 28% | 1023.4 hPa | - | - | 60 W/m² | - |
| 1777633353 | 13.89° C | 28% | 1023.4 hPa | - | - | 51 W/m² | - |
| 1777632993 | 13.89° C | 28% | 1023.5 hPa | - | - | 42 W/m² | - |
| 1777632633 | 13.33° C | 28% | 1023.5 hPa | - | - | 34 W/m² | - |
| 1777632273 | 13.33° C | 27% | 1023.4 hPa | - | - | 35 W/m² | - |
| 1777631913 | 13.89° C | 27% | 1023.5 hPa | - | - | 36 W/m² | - |
| 1777631553 | 13.89° C | 27% | 1023.5 hPa | - | - | 44 W/m² | - |
| 1777631193 | 14.44° C | 27% | 1023.5 hPa | - | - | 51 W/m² | - |
| 1777630833 | 15.56° C | 27% | 1023.4 hPa | - | - | 54 W/m² | - |
| 1777630473 | 15.56° C | 27% | 1023.5 hPa | - | - | 52 W/m² | - |
| 1777630113 | 15.56° C | 27% | 1023.6 hPa | - | - | 82 W/m² | - |
| 1777629753 | 17.22° C | 28% | 1023.5 hPa | - | - | 47 W/m² | - |
| 1777629393 | 16.67° C | 28% | 1023.6 hPa | - | - | 58 W/m² | - |
| 1777629033 | 15.56° C | 28% | 1023.6 hPa | - | - | 65 W/m² | - |
| 1777628673 | 16.11° C | 29% | 1023.6 hPa | - | - | 139 W/m² | - |
| 1777628313 | 15.56° C | 29% | 1023.7 hPa | - | - | 101 W/m² | - |
| 1777627953 | 16.11° C | 29% | 1023.7 hPa | - | - | 33 W/m² | - |
| 1777627593 | 16.11° C | 30% | 1023.8 hPa | - | - | 41 W/m² | - |
| 1777627233 | 16.11° C | 31% | 1023.9 hPa | - | - | 48 W/m² | - |
* Rain since midnight (hover to see other rain measurements)
** Current wind speed in m/s (hover to see current wind gust speed)